www.pogodaiklimat.ru

Погода и климат >> Архив погоды >> Австралия >> Западная Австралия >> Каррата


ПОГОДА в Каррате

  • Прогноз погоды в Каррате
  • Монитор погоды в Каррате

АРХИВ ПОГОДЫ в Каррате

Время (UTC), дата Ветер
(напр.,м/с)
 
Видим.   Явления Облачность Т
(С)
Тd
(С)
f
(%)
Тe
(С)
Тes
(С)
Комфортность P
(гПа)
Po
(гПа)
Тmin
(С)
Tmax
(С)
R
(мм)
R24
(мм)
S
(см)
10 11.08 СВ 4 н/о н/о +23.5 +7.6 36 +24 +24 комфорт 1016.3 1015.6
12 11.08 В 3 н/о н/о +20.3 +12.8 62 +23 +23 комфорт 1017.3 1016.6
13 11.08 В 3 н/о н/о +19.0 +13.4 70 +20 +20 1017.9 1017.2 +28.1
15 11.08 Ю 3 н/о н/о +17.6 +5.9 46 +18 +18 1017.9 1017.2
16 11.08 Ю 3 н/о 5/0
[]
+18.4 +6.6 46 +19 +19 1017.6 1016.9
18 11.08 ЮЗ 2 н/о н/о +19.5 +2.8 33 +20 +20 1016.7 1016.0
19 11.08 ЮЗ 3 н/о 4/0
[]
+18.7 +8.4 51 +19 +19 1016.3 1015.6
21 11.08 Ю 2 н/о н/о +17.1 +0.3 32 +17 +17 1016.5 1015.8
22 11.08 Ю 2 н/о н/о +16.5 +0.2 33 +17 +17 1017.2 1016.5
00 12.08 В 4 н/о н/о +21.8 +2.5 28 +22 +22 комфорт 1018.7 1018.0
01 12.08 В 6 н/о н/о +24.4 +3.1 25 +24 +24 комфорт 1019.0 1018.3 +15.0
03 12.08 В 10 н/о н/о +29.1 +1.6 17 +27 +27 жарко 1018.2 1017.5
04 12.08 В 10 н/о н/о +29.9 +3.0 18 +28 +28 жарко 1017.5 1016.8
06 12.08 СВ 9 н/о н/о +28.4 +8.1 28 +28 +28 жарко 1016.1 1015.4
07 12.08 СВ 9 н/о н/о +28.3 +5.8 24 +27 +27 жарко 1015.6 1014.9
09 12.08 СВ 7 н/о н/о +25.7 +9.9 37 +26 +26 жарко 1015.9 1015.2
10 12.08 СВ 5 н/о 6/0
[]
+23.7 +14.4 56 +26 +26 жарко 1016.3 1015.6
12 12.08 В 2 н/о н/о +22.5 +16.1 67 +27 +27 душно 1017.4 1016.7
13 12.08 В 3 н/о 5/0
[]
+22.4 +15.3 64 +26 +26 жарко 1017.6 1016.9 +30.6
15 12.08 ЮВ 2 н/о н/о +23.0 +11.4 48 +25 +25 комфорт 1017.5 1016.8
16 12.08 Ю 3 н/о 10/0
[]
+22.1 +8.2 41 +23 +23 комфорт 1017.3 1016.6
18 12.08 В 2 н/о н/о +22.0 +9.5 45 +24 +24 комфорт 1016.3 1015.6
19 12.08 Ю 1 н/о 10/0
[]
+22.0 +9.2 44 +23 +23 комфорт 1016.0 1015.3
21 12.08 СЗ 1 н/о н/о +21.7 +7.9 41 +23 +23 комфорт 1016.6 1015.9
22 12.08 В 3 н/о 10/0
[]
+21.1 +9.4 47 +22 +22 комфорт 1017.0 1016.3
00 13.08 В 3 н/о н/о +23.3 +8.6 39 +25 +25 комфорт 1017.9 1017.2
01 13.08 В 7 н/о 6/0
[]
+25.5 +8.5 34 +26 +27 жарко 1018.2 1017.5 +21.1
03 13.08 В 9 н/о н/о +25.6 +9.0 35 +26 +26 жарко 1018.0 1017.3
04 13.08 СВ 8 н/о н/о +26.2 +9.1 34 +27 +27 жарко 1017.3 1016.6
09 13.08 СВ 8 н/о н/о +24.0 +16.0 61 +27 +27 жарко 1015.8 1015.1
10 13.08 СВ 5 н/о 1/0
[]
+22.8 +17.7 73 +28 +28 душно 1016.2 1015.5
12 13.08 СВ 4 н/о н/о +22.5 +19.3 82 +28 +28 душно 1017.3 1016.6
13 13.08 В 3 н/о 10/0
[]
+22.4 +19.6 84 +28 +28 душно 1017.5 1016.8 +27.8
15 13.08 В 2 н/о н/о +22.3 +20.2 88 +29 +29 очень
душно
1017.4 1016.7
16 13.08 В 2 н/о 10/0
[]
+21.9 +20.2 90 +28 +28 душно 1017.1 1016.4
18 13.08 Ю 3 н/о н/о +21.0 +18.8 87 +26 +26 душно 1016.7 1016.0
19 13.08 ЮВ 1 н/о 10/10 200 м
[]
+21.2 +18.8 86 +26 +26 душно 1016.3 1015.6
21 13.08 Ю 2 н/о н/о +20.5 +17.3 82 +25 +25 комфорт 1016.4 1015.7
22 13.08 штиль 0 н/о 10/10 200 м
[]
+20.3 +16.7 80 +23 +23 комфорт 1016.6 1015.9
00 14.08 СВ 4 н/о н/о +22.1 +20.9 93 +29 +29 очень
душно
1017.0 1016.3
01 14.08 СВ 3 н/о 9/0
[]
+23.2 +21.1 88 +31 +34 очень
душно
1017.4 1016.7 +20.0
03 14.08 З 6 н/о н/о +25.8 +20.4 72 +32 +32 очень
душно
1017.6 1016.9
04 14.08 З 5 н/о 3/0
[]
+26.1 +19.7 68 +32 +38 очень
душно
1016.8 1016.1
06 14.08 З 5 н/о н/о +26.3 +19.4 66 +32 +32 очень
душно
1015.9 1015.2
07 14.08 З 6 н/о 10/0
[]
+26.1 +18.8 64 +31 +33 очень
душно
1015.5 1014.8
09 14.08 З 5 н/о н/о +25.7 +17.9 62 +30 +30 душно 1015.3 1014.6
10 14.08 СЗ 4 н/о 10/0
[]
+24.6 +18.5 69 +29 +29 душно 1015.6 1014.9
12 14.08 СЗ 5 н/о н/о +23.4 +18.7 75 +30 +30 очень
душно
1017.0 1016.3
13 14.08 З 5 н/о 9/0
[]
+23.2 +18.5 75 +29 +29 душно 1017.6 1016.9 +27.2
15 14.08 ЮЗ 6 н/о н/о +22.4 +14.8 62 +26 +26 жарко 1017.5 1016.8
16 14.08 З 6 н/о 9/0
[]
+22.4 +16.2 68 +27 +27 душно 1017.9 1017.2
18 14.08 ЮЗ 6 н/о н/о +21.7 +14.8 65 +25 +25 комфорт 1017.0 1016.3
19 14.08 ЮЗ 5 н/о 10/0
[]
+21.7 +14.8 65 +25 +25 комфорт 1016.9 1016.2
21 14.08 ЮЗ 4 н/о н/о +20.8 +13.0 61 +23 +23 комфорт 1016.9 1016.2
22 14.08 ЮЗ 3 н/о 10/0
[]
+20.4 +12.9 62 +23 +23 комфорт 1017.4 1016.7
00 15.08 ЮЗ 5 н/о н/о +20.8 +12.5 59 +23 +23 комфорт 1018.5 1017.8
01 15.08 ЮЗ 5 н/о 10/0 2000 м
[]
+21.1 +11.4 54 +23 +25 комфорт 1019.0 1018.3 +19.8
03 15.08 З 5 н/о н/о +21.9 +13.0 57 +25 +25 комфорт 1018.7 1018.0
04 15.08 З 5 н/о 10/0
[]
+23.4 +11.8 48 +26 +30 жарко 1018.1 1017.4
06 15.08 З 9 н/о н/о +24.5 +13.1 49 +27 +27 жарко 1016.1 1015.4
07 15.08 З 9 н/о 10/0
[]
+23.9 +12.8 50 +26 +26 жарко 1015.6 1014.9
09 15.08 З 7 н/о н/о +23.8 +12.8 50 +26 +26 жарко 1015.5 1014.8
10 15.08 З 8 н/о 5/0
[]
+22.3 +13.9 59 +25 +25 комфорт 1016.1 1015.4
12 15.08 З 8 н/о н/о +21.2 +14.4 65 +24 +24 комфорт 1017.2 1016.5
13 15.08 З 7 н/о н/о +20.3 +13.7 66 +22 +22 комфорт 1017.8 1017.1 +24.8
15 15.08 ЮЗ 5 н/о н/о +18.8 +13.6 72 +19 +19 1017.9 1017.2
16 15.08 ЮЗ 4 н/о н/о +17.6 +12.7 73 +17 +17 1017.8 1017.1
18 15.08 ЮЗ 4 н/о н/о +15.9 +6.6 54 +15 +15 1017.1 1016.4
19 15.08 Ю 4 н/о н/о +16.3 +4.4 45 +16 +16 1016.7 1016.0
21 15.08 Ю 5 н/о н/о +15.0 +3.2 45 +14 +14 1016.8 1016.1
22 15.08 Ю 5 н/о н/о +14.6 +2.8 45 +13 +13 1017.1 1016.4
00 16.08 ЮВ 3 н/о н/о +18.7 +3.3 36 +19 +19 1018.6 1017.9
01 16.08 ЮВ 6 н/о н/о +22.5 +6.7 36 +23 +23 комфорт 1019.1 1018.4 +14.4
03 16.08 В 6 н/о н/о +25.8 +8.3 33 +26 +26 жарко 1018.8 1018.1
04 16.08 СВ 6 н/о н/о +27.0 +8.0 30 +27 +27 жарко 1017.9 1017.2
06 16.08 СВ 7 н/о н/о +25.9 +8.4 33 +26 +26 жарко 1016.6 1015.9
07 16.08 С 6 н/о н/о +25.9 +8.0 32 +26 +26 жарко 1016.2 1015.5
09 16.08 СЗ 6 н/о н/о +25.0 +9.3 37 +26 +26 жарко 1016.7 1016.0
10 16.08 З 7 н/о н/о +23.0 +14.6 59 +27 +27 душно 1016.8 1016.1
12 16.08 З 6 н/о н/о +21.2 +12.9 59 +23 +23 комфорт 1018.0 1017.3
13 16.08 ЮЗ 6 н/о н/о +20.5 +12.7 61 +23 +23 комфорт 1018.4 1017.7 +27.3
15 16.08 ЮЗ 5 н/о н/о +18.8 +11.9 64 +19 +19 1018.5 1017.8
16 16.08 ЮЗ 3 н/о н/о +17.8 +11.6 67 +18 +18 1018.4 1017.7
18 16.08 Ю 1 н/о н/о +16.0 +11.6 75 +17 +17 1017.6 1016.9
19 16.08 штиль 0 н/о н/о +14.7 +10.3 75 +14 +14 1017.2 1016.5
21 16.08 ЮВ 2 н/о н/о +13.6 +8.2 70 +13 +13 1017.1 1016.4
22 16.08 ЮЗ 2 н/о н/о +13.8 +7.6 66 +13 +13 1017.8 1017.1
00 17.08 Ю 3 н/о н/о +18.1 +5.3 43 +18 +18 1019.5 1018.8
01 17.08 ЮВ 4 н/о н/о +22.4 +4.5 31 +23 +23 комфорт 1019.9 1019.2 +13.3
03 17.08 СВ 5 н/о н/о +25.4 +5.6 28 +25 +25 комфорт 1019.9 1019.2
04 17.08 СВ 6 н/о н/о +26.2 +6.8 29 +26 +26 жарко 1019.4 1018.7
06 17.08 СВ 8 н/о н/о +25.2 +9.1 36 +26 +26 жарко 1017.9 1017.2
07 17.08 С 6 н/о н/о +26.0 +8.0 32 +26 +26 жарко 1017.5 1016.8
09 17.08 СЗ 5 н/о н/о +25.6 +8.6 34 +26 +26 жарко 1017.6 1016.9
10 17.08 СЗ 4 н/о н/о +24.5 +8.9 37 +25 +25 комфорт 1018.0 1017.3
12 17.08 З 6 н/о н/о +21.9 +16.0 69 +26 +26 душно 1019.5 1018.8
13 17.08 СЗ 3 н/о н/о +21.2 +15.1 68 +24 +24 комфорт 1019.9 1019.2 +27.2
15 17.08 Ю 4 н/о н/о +16.7 +12.8 78 +16 +16 1020.0 1019.3
16 17.08 Ю 3 н/о н/о +15.0 +10.2 73 +14 +14 1020.0 1019.3
18 17.08 Ю 3 н/о н/о +14.9 +7.2 60 +14 +14 1019.6 1018.9
19 17.08 Ю 3 н/о н/о +13.6 +3.4 50 +13 +13 1019.6 1018.9
21 17.08 ЮВ 4 н/о н/о +14.1 +1.1 41 +13 +13 1019.6 1018.9
22 17.08 ЮВ 2 н/о н/о +14.7 +0.9 39 +15 +15 1020.4 1019.7
00 18.08 В 8 н/о н/о +20.2 +0.1 26 +20 +20 1021.8 1021.1
01 18.08 В 10 н/о н/о +22.1 -0.6 22 +21 +21 комфорт 1022.1 1021.4 +13.3
03 18.08 В 10 н/о н/о +25.0 -1.7 17 +23 +23 комфорт 1022.0 1021.3
04 18.08 В 9 н/о н/о +26.3 -1.5 16 +24 +24 комфорт 1021.1 1020.4
06 18.08 СВ 9 н/о н/о +25.0 +6.7 31 +25 +25 комфорт 1019.6 1018.9
07 18.08 СВ 8 н/о н/о +25.2 +7.3 32 +25 +25 комфорт 1019.1 1018.4
09 18.08 В 7 н/о н/о +26.6 -6.2 11 +24 +24 комфорт 1019.1 1018.4

 

Местоположение метеостанции Каррата (Западная Австралия, Австралия): широта -20.72 долгота 116.77 высота над уровнем моря 6 м.

В архиве по умолчанию представлена погода в Каррате за последнюю неделю. Архивные данные за месяц целиком и за предыдущие месяцы, начиная с января 2011 года, Вы можете получить, выбрав интересующий диапазон дат из раскрывающегося списка и нажав кнопку "Ввод!".


*Определитесь, кто Вы:
робот инопланетянин человек

Внимание! Время в таблицах - всемирное. Для получения местного времени необходимо прибавить поправку, которая равна 8 ч.

Смотрите также архив погоды в соседних городах и на ближайших метеорологических станциях:

Погода в Роборн аэропорту (Западная Австралия, Австралия) (40 км)
Погода в Марди (Западная Австралия, Австралия) (98 км)
Погода на Острове Варанас (Западная Австралия, Австралия) (125 км)
Погода в Барроу-Айленд (Западная Австралия, Австралия) (144 км)
Погода в Порт-Хедленде Apardoo (Западная Австралия, Австралия) (198 км)
Погода на Острове Тевенард (Западная Австралия, Австралия) (199 км)
Погода в Онслоу (Западная Австралия, Австралия) (201 км)
Погода в Параберду (Западная Австралия, Австралия) (291 км)
Погода в Марбл-баре (Западная Австралия, Австралия) (314 км)
Погода в Лермонте (Западная Австралия, Австралия) (325 км)

Пояснения к столбцам:

Ветер - указаны скорость ветра в м/с - средняя за 10 мин, порывы в срок и между сроками (в фигурных скобках) и направление, откуда дует ветер: С - северный, СВ - северо-восточный, В - восточный, ЮВ - юго-восточный, Ю - южный, ЮЗ - юго-западный, З - западный, СЗ - северо-западный.
Видимость - горизонтальная дальность видимости в метрах или километрах. При видимости от 1 до 10 км при отсутствии осадков обычно наблюдается дымка, при ухудшении видимости до 1 км и менее - туман. В сухую погоду видимость может ухудшаться дымом, пылью или мглою.
Явления - указаны атмосферные явления, наблюдавшиеся в срок или в последний час перед сроком; фигурными скобками обозначены явления, наблюдавшиеся между сроками (за 1-3 часа до срока); квадратными скобками обозначены град или гололедные отложения с указанием их диаметра в мм.
Облачность - указаны через наклонную черту общая и нижняя облачность в баллах и высота нижней границы облаков в метрах; квадратными скобками обозначены формы облаков: Ci - перистые, Cs - перисто-слоистые, Cc - перисто-кучевые, Ac - высококучевые, As - высокослоистые, Sc - слоисто-кучевые, Ns - слоисто-дождевые, Cu - кучевые, Cb - кучево-дождевые. Подробнее классификацию облаков см. в Атласе облаков (PDF).
T - Температура воздуха - температура, измеренная на высоте 2 м над землей.
Td - Температура точки росы - температура, при понижении до которой содержащийся в воздухе водяной пар достигнет насыщения.
f - Относительная влажность воздуха - влажноcть воздуха, измеренная на высоте 2 м над землей.
Te - Эффективная температура - температура, которую ощущает одетый по сезону человек в тени. Характеристика душности погоды. При расчете учитывается влияние влажности воздуха и скорости ветра на теплоощущения человека.
Tes - Эффективная температура на солнце - температура, которую ощущает человек, с поправкой на солнечный нагрев. Характеристика знойности погоды. Зависит от высоты солнца над горизонтом, облачности и скорости ветра. Ночью, в пасмурную погоду, а также при ветре 12 м/с и более поправка равна нулю.
P - Атмосферное давление - приведенное к уровню моря атмосферное давление.
Po - Атмосферное давление - измеренное на уровне метеостанции атмосферное давление.
Tmin - Минимальная температура - минимум температуры воздуха на высоте 2 м над землей.
Tmax - Максимальная температура - максимум температуры воздуха на высоте 2 м над землей.
R - Количество осадков - Количество выпавших осадков за период времени, мм. При наведении курсора мыши на число - период времени, за который выпало указанное количество осадков.
R24 - Количество осадков - Количество выпавших осадков за 24 часа, мм.
S - Снежный покров - Высота снежного покрова, см. При наведении курсора мыши на число - состояние снежного покрова и степень покрытия местности в баллах.